GEESAT-6 03

Last updated on Sat Oct 25 2025 00:02:05 GMT+0000 (Coordinated Universal Time)

1 65715U 25214D 25297.68539569 .00003854 00000+0 45456-3 0 9990 2 65715 49.9831 320.5090 0015693 46.3454 313.8784 14.86648182 4533
UTC large
Height (km)
Speed (km/s)
/
Latitude / Longitude
Inclination (degrees)
Orbital Period (minutes)
Azimuth
Elevation
Range (km)
Doppler Factor

Next 0 passes for location: London (51.5072 / 0.1276)

Sorry there are no passes over London.
GEESAT-6 03